Current weather by "City, St" or "zip code"  
 

Current Conditions: Sandpoint, Sandpoint Airport, ID

Fair


59.0 F

Last Updated on Oct 29 2020, 2:55 pm PDT
Humidity: 45%
Wind Speed: SW 6.9 mph
Barometer 30.07 in
Dewpoint: 37.4 F
Visibility: 10.00 mi
Precip: --
Heat Index: NA
Wind Chill: 58 F
Current conditions at:

Sandpoint, Sandpoint Airport, ID (KSZT)

Lat: 48.29944 Lon: 116.56

Local Radar Image active severe weather and emergency alerts image image weather storm and storm spotter reports image weather observation monitoring service image
Local
Radar
Active
Alerts
Storm Reports Obs
Monitoring

Sign-up For Email & Text Message Weather Alert Notification Services



Advertise Here

Observation History for Sandpoint, Sandpoint Airport, ID


Time Wind
(mph)
Vis
(mi)
Weather Precip (in) Temperature (F) Relative
Humidity
Wind
Chill
(F)
Heat
Index
(F)
Pressure
Air Dwpt altimeter
(in)
sea level
(mb)
Rmks
2:55 pm PDT SW 6.9 10.00 Fair -- 59.0 37.4 45% 58 NA 30.07 M
1:55 pm PDT S 8.1 10.00 Fair -- 55.0 37.4 51% 53 NA 30.08 M
12:55 pm PDT SW 8.1 10.00 Partly Cloudy -- 55.0 37.4 51% 53 NA 30.11 M
11:55 am PDT S 9.2 10.00 Partly Cloudy -- 52.0 37.4 58% 49 NA 30.12 M
10:55 am PDT N 0.0 10.00 Fair -- 45.0 35.6 71% NA NA 30.13 M
9:55 am PDT N 0.0 10.00 Fair -- 39.0 33.8 81% NA NA 30.13 M
8:55 am PDT N 0.0 7.00 Fair -- 32.0 32.0 100% NA NA 30.13 M
7:55 am PDT N 0.0 1.50 Fog/Mist -- 30.0 30.2 100% NA NA 30.12 M
6:55 am PDT N 0.0 7.00 Partly Cloudy -- 30.0 30.2 100% NA NA 30.11 M
5:55 am PDT N 0.0 10.00 Fair -- 30.0 30.2 100% NA NA 30.10 M
4:55 am PDT N 0.0 7.00 Fair -- 30.0 30.2 100% NA NA 30.10 M
3:55 am PDT N 0.0 7.00 Fair -- 30.0 30.2 100% NA NA 30.09 M
2:55 am PDT N 0.0 7.00 Fair -- 30.0 30.2 100% NA NA 30.10 M
1:55 am PDT N 0.0 7.00 Partly Cloudy -- 32.0 32.0 100% NA NA 30.10 M
12:55 am PDT N 0.0 10.00 Mostly Cloudy -- 32.0 32.0 100% NA NA 30.12 M
12:35 am PDT N 0.0 7.00 Fair -- 30.0 30.2 100% NA NA 30.12 M
11:15 pm PDT N 0.0 7.00 Fair -- 32.0 32.0 100% NA NA 30.12 M
10:55 pm PDT N 0.0 10.00 Fair -- 32.0 32.0 100% NA NA 30.11 M
9:55 pm PDT NE 3.5 10.00 Fair -- 32.0 32.0 100% NA NA 30.12 M
8:55 pm PDT N 0.0 10.00 Fair -- 34.0 32.0 93% NA NA 30.13 M
7:55 pm PDT N 0.0 10.00 Fair -- 34.0 32.0 93% NA NA 30.14 M
6:55 pm PDT N 0.0 10.00 Fair -- 36.0 32.0 87% NA NA 30.13 M
5:55 pm PDT N 0.0 10.00 Fair -- 41.0 33.8 76% NA NA 30.13 M
4:55 pm PDT N 3.5 10.00 Fair -- 46.0 35.6 66% NA NA 30.14 M

Regional Weather Observation


Boundary County Airport, ID (K65S)

Fair
57.0 F

Coeur dAlene Airport - Pappy Boyington Field, ID (KCOE)

Fair
59.0 F

Deer Park, Deer Park Airport, WA (KDEW)

Fair
56.0 F

Spokane, Felts Field, WA (KSFF)

Fair
59.0 F

Spokane, Spokane International Airport, WA (KGEG)

A Few Clouds
59.0 F

Fairchild Air Force Base, WA (KSKA)

Fair
60.0 F